Date String (YYYY-MM-DD hh:mm:ss) UTC,Instrument flags,Ambient pressure (hPa),Sample flow (lpm),Bypass flow (lpm),Sample temperature (°C),Ambient temperature (°C),ASC tube jacket temperature (°C),LED temperature (°C),Box temperature (°C),Sample RH (%),Span deviation,Mass concentration (μg/m³),Mass concentration (μg/m³),Mass concentration (μg/m³)
DateTimeUTC,F1_M11,P_M11,Q1_M11,Q2_M11,T1_M11,T2_M11,T3_M11,T4_M11,T5_M11,U1_M11,ZSPAN_M11,X0_M11,X2_M11,X1_M11
2022-04-30 11:00:00,,0823.6,5.01,0.00,22.2,21.1,00.0,31.3,23.9,09.9,0000.0,0007.40,0002.58,0001.91
2022-04-30 11:01:00,,0823.7,4.99,0.00,22.2,21.0,00.0,31.3,23.9,10.0,0000.0,0007.37,0002.57,0001.92
2022-04-30 11:02:00,,0823.7,5.01,0.00,22.2,21.0,00.0,31.3,23.9,10.0,0000.0,0007.42,0002.60,0001.93
2022-04-30 11:03:00,,0823.7,5.01,0.00,22.2,21.0,00.0,31.3,23.8,10.1,0000.0,0007.46,0002.62,0001.93
2022-04-30 11:04:00,,0823.7,5.00,0.00,22.2,21.0,00.0,31.3,23.8,10.1,0000.0,0007.41,0002.62,0001.93
2022-04-30 11:05:00,,0823.7,5.00,0.00,22.2,20.9,00.0,31.3,23.9,10.1,0000.0,0006.75,0002.64,0001.93
2022-04-30 11:06:00,,0823.7,5.02,0.00,22.2,20.9,00.0,31.3,23.9,10.1,0000.0,0005.40,0002.64,0001.93
2022-04-30 11:07:00,,0823.7,4.99,0.00,22.2,20.9,00.0,31.3,23.9,10.1,0000.0,0005.48,0002.70,0001.92
2022-04-30 11:08:00,,0823.7,5.00,0.00,22.2,21.0,00.0,31.3,23.8,10.0,0000.0,0005.56,0002.75,0001.92
2022-04-30 11:09:00,,0823.7,5.01,0.00,22.2,21.0,00.0,31.3,23.8,10.0,0000.0,0005.64,0002.78,0001.92
2022-04-30 11:10:00,,0823.7,4.99,0.00,22.2,21.0,00.0,31.3,23.8,10.0,0000.0,0005.59,0002.82,0001.93
2022-04-30 11:11:00,,0823.6,5.02,0.00,22.2,21.0,00.0,31.3,23.9,09.9,0000.0,0005.03,0002.82,0001.93
2022-04-30 11:12:00,,0823.7,5.01,0.00,22.2,21.0,00.0,31.2,23.9,09.9,0000.0,0005.30,0002.91,0001.93
2022-04-30 11:13:00,,0823.6,4.99,0.00,22.2,21.0,00.0,31.2,23.9,10.0,0000.0,0005.35,0002.95,0001.92
2022-04-30 11:14:00,,0823.6,4.99,0.00,22.2,21.0,00.0,31.2,23.8,10.1,0000.0,0005.58,0002.88,0001.91
2022-04-30 11:15:00,,0823.6,4.99,0.00,22.2,20.9,00.0,31.2,23.9,10.0,0000.0,0005.66,0002.85,0001.91
2022-04-30 11:16:00,,0823.6,5.01,0.00,22.2,20.9,00.0,31.2,23.8,10.0,0000.0,0005.40,0002.80,0001.90
2022-04-30 11:17:00,,0823.4,5.01,0.00,22.2,20.9,00.0,31.2,23.8,10.0,0000.0,0005.39,0002.78,0001.89
2022-04-30 11:18:00,,0823.4,4.99,0.00,22.2,20.9,00.0,31.2,23.7,10.0,0000.0,0005.41,0002.77,0001.87
2022-04-30 11:19:00,,0823.6,5.00,0.00,22.1,20.9,00.0,31.2,23.8,09.9,0000.0,0005.42,0002.75,0001.87
2022-04-30 11:20:00,,0823.5,5.01,0.00,22.1,20.9,00.0,31.2,23.7,09.9,0000.0,0005.42,0002.75,0001.87
2022-04-30 11:21:00,,0823.4,4.99,0.00,22.1,20.9,00.0,31.2,23.8,09.9,0000.0,0005.41,0002.77,0001.86
2022-04-30 11:22:00,,0823.6,5.00,0.00,22.1,20.9,00.0,31.2,23.7,09.9,0000.0,0005.40,0002.77,0001.84
2022-04-30 11:23:00,,0823.7,4.99,0.00,22.1,20.8,00.0,31.2,23.7,09.9,0000.0,0005.34,0002.73,0001.83
2022-04-30 11:24:00,,0823.6,5.02,0.00,22.1,20.8,00.0,31.2,23.7,09.9,0000.0,0005.31,0002.71,0001.82
2022-04-30 11:25:00,,0823.7,5.00,0.00,22.1,20.8,00.0,31.2,23.8,09.9,0000.0,0005.21,0002.74,0001.83
2022-04-30 11:26:00,,0823.6,4.99,0.00,22.1,20.9,00.0,31.2,23.7,09.9,0000.0,0004.94,0002.76,0001.84
2022-04-30 11:27:00,,0823.6,4.99,0.00,22.1,20.9,00.0,31.1,23.7,09.9,0000.0,0005.13,0002.80,0001.84
2022-04-30 11:28:00,,0823.5,5.00,0.00,22.1,20.8,00.0,31.1,23.7,09.9,0000.0,0005.22,0002.81,0001.84
2022-04-30 11:29:00,,0823.6,5.01,0.00,22.1,20.9,00.0,31.1,23.7,09.9,0000.0,0005.18,0002.78,0001.85
2022-04-30 11:30:00,,0823.6,5.00,0.00,22.1,20.8,00.0,31.1,23.7,09.9,0000.0,0005.27,0002.82,0001.85
2022-04-30 11:31:00,,0823.6,4.99,0.00,22.1,20.8,00.0,31.1,23.7,09.9,0000.0,0005.26,0002.80,0001.84
2022-04-30 11:32:00,,0823.6,5.00,0.00,22.1,20.8,00.0,31.1,23.8,10.0,0000.0,0005.35,0002.80,0001.84
2022-04-30 11:33:00,,0823.6,5.01,0.00,22.1,20.9,00.0,31.1,23.8,09.9,0000.0,0005.35,0002.80,0001.85
2022-04-30 11:34:00,,0823.7,5.00,0.00,22.1,20.9,00.0,31.1,23.8,10.0,0000.0,0005.28,0002.77,0001.85
2022-04-30 11:35:00,,0823.8,5.00,0.00,22.1,21.0,00.0,31.1,23.9,10.8,0000.0,0005.29,0002.75,0001.82
2022-04-30 11:36:00,,0823.8,5.01,0.00,22.1,21.0,00.0,31.1,23.9,11.4,0000.0,0005.22,0002.65,0001.77
2022-04-30 11:37:00,,0823.8,5.00,0.00,22.1,21.1,00.0,31.1,23.9,11.7,0000.0,0005.17,0002.60,0001.73
2022-04-30 11:38:00,,0823.7,5.01,0.00,22.1,21.1,00.0,31.1,23.9,11.8,0000.0,0005.57,0002.56,0001.70
2022-04-30 11:39:00,,0823.7,5.00,0.00,22.1,21.2,00.0,31.1,24.0,11.9,0000.0,0005.54,0002.51,0001.68
2022-04-30 11:40:00,,0823.7,5.00,0.00,22.2,21.2,00.0,31.1,24.0,11.8,0000.0,0005.42,0002.47,0001.65
2022-04-30 11:41:00,,0823.7,5.00,0.00,22.2,21.3,00.0,31.1,24.0,11.7,0000.0,0005.33,0002.38,0001.61
2022-04-30 11:42:00,,0823.7,5.00,0.00,22.2,21.3,00.0,31.1,24.0,11.6,0000.0,0005.43,0002.37,0001.58
2022-04-30 11:43:00,,0823.7,5.00,0.00,22.2,21.3,00.0,31.2,24.0,11.7,0000.0,0005.36,0002.35,0001.55
2022-04-30 11:44:00,,0823.7,5.00,0.00,22.2,21.3,00.0,31.2,24.1,11.9,0000.0,0005.41,0002.33,0001.49
2022-04-30 11:45:00,,0823.6,5.00,0.00,22.3,21.3,00.0,31.2,24.1,11.4,0000.0,0005.37,0002.29,0001.44
2022-04-30 11:46:00,,0823.6,5.00,0.00,22.3,21.4,00.0,31.2,24.1,11.3,0000.0,0005.14,0002.23,0001.43
2022-04-30 11:47:00,,0823.7,5.00,0.00,22.3,21.4,00.0,31.2,24.1,11.4,0000.0,0004.95,0002.25,0001.43
2022-04-30 11:48:00,,0823.8,5.00,0.00,22.3,21.4,00.0,31.2,24.1,12.0,0000.0,0006.12,0002.26,0001.43
2022-04-30 11:49:00,,0823.7,5.00,0.00,22.3,21.5,00.0,31.2,24.2,12.5,0000.0,0005.88,0002.28,0001.42
2022-04-30 11:50:00,,0823.7,5.00,0.00,22.3,21.5,00.0,31.2,24.2,12.0,0000.0,0005.73,0002.30,0001.42
2022-04-30 11:51:00,,0823.7,5.00,0.00,22.3,21.5,00.0,31.2,24.2,11.7,0000.0,0005.93,0002.27,0001.42
2022-04-30 11:52:00,,0823.8,5.00,0.00,22.3,21.5,00.0,31.3,24.2,12.0,0000.0,0006.11,0002.31,0001.41
2022-04-30 11:53:00,,0823.7,5.00,0.00,22.4,21.5,00.0,31.3,24.2,11.8,0000.0,0006.26,0002.31,0001.42
2022-04-30 11:54:00,,0823.8,5.02,0.00,22.4,21.5,00.0,31.3,24.2,10.5,0000.0,0006.33,0002.27,0001.43
2022-04-30 11:55:00,,0823.7,5.01,0.00,22.4,21.5,00.0,31.3,24.2,11.1,0000.0,0006.14,0002.22,0001.44
2022-04-30 11:56:00,,0823.7,5.00,0.00,22.4,21.5,00.0,31.3,24.2,12.0,0000.0,0006.18,0002.21,0001.45
2022-04-30 11:57:00,,0823.8,5.00,0.00,22.4,21.5,00.0,31.3,24.2,11.5,0000.0,0006.44,0002.23,0001.45
2022-04-30 11:58:00,,0823.9,5.01,0.00,22.4,21.5,00.0,31.3,24.2,12.4,0000.0,0006.39,0002.19,0001.45
2022-04-30 11:59:00,,0823.8,5.00,0.00,22.4,21.5,00.0,31.3,24.2,13.2,0000.0,0005.06,0002.17,0001.45
